| time (UTC) | temp F | wind direction | speed MPH | gust MPH | rain 1hr in | rain 24hr in | rain mn in | humidity % | barometer mb |
| 20260510052526 | 53 | 344 | 0.0 | 0.0 | 0.00 | 0.06 | 0.00 | 75 | 1011.3 |
| 20260510051344 | 54 | 344 | 0.0 | 0.0 | 0.00 | 0.06 | 0.00 | 74 | 1011.3 |
| 20260510050158 | 55 | 344 | 0.0 | 3.0 | 0.00 | 0.06 | 0.00 | 67 | 1011.2 |
| 20260510044921 | 55 | 59 | 0.0 | 4.0 | 0.00 | 0.06 | 0.00 | 63 | 1010.9 |
| 20260510043752 | 55 | 333 | 0.0 | 3.0 | 0.00 | 0.06 | 0.00 | 65 | 1010.6 |
| 20260510042541 | 55 | 339 | 0.0 | 2.0 | 0.00 | 0.06 | 0.00 | 67 | 1010.6 |
| 20260510041316 | 56 | 283 | 0.0 | 6.0 | 0.00 | 0.06 | 0.00 | 64 | 1010.5 |
| 20260510040126 | 58 | 338 | 1.0 | 9.0 | 0.00 | 0.06 | 0.00 | 57 | 1010.4 |
| 20260510034934 | 58 | 19 | 1.0 | 9.0 | 0.00 | 0.06 | 0.06 | 57 | 1010.1 |
| 20260510033725 | 58 | 340 | 1.0 | 7.0 | 0.00 | 0.06 | 0.06 | 56 | 1010.0 |
| 20260510032451 | 59 | 333 | 3.0 | 9.0 | 0.00 | 0.06 | 0.06 | 58 | 1009.9 |
| 20260510031235 | 59 | 346 | 4.0 | 11.0 | 0.00 | 0.06 | 0.06 | 58 | 1009.8 |
| 20260510030030 | 59 | 0 | 3.0 | 11.0 | 0.00 | 0.06 | 0.06 | 62 | 1009.6 |
| 20260510024831 | 61 | 337 | 3.0 | 9.0 | 0.00 | 0.06 | 0.06 | 58 | 1009.2 |
| 20260510023551 | 61 | 327 | 3.0 | 11.0 | 0.00 | 0.06 | 0.06 | 58 | 1008.8 |
| 20260510022316 | 60 | 343 | 0.0 | 11.0 | 0.00 | 0.06 | 0.06 | 64 | 1008.4 |
| 20260510021057 | 61 | 20 | 0.0 | 0.0 | 0.00 | 0.06 | 0.06 | 65 | 1008.0 |
| 20260510015853 | 58 | 221 | 0.0 | 1.0 | 0.00 | 0.06 | 0.06 | 74 | 1007.6 |
| 20260510014635 | 57 | 229 | 0.0 | 0.0 | 0.00 | 0.06 | 0.06 | 78 | 1007.4 |
| 20260510013408 | 58 | 5 | 0.0 | 0.0 | 0.00 | 0.06 | 0.06 | 76 | 1007.1 |
| 20260510012158 | 58 | 5 | 0.0 | 0.0 | 0.00 | 0.06 | 0.06 | 76 | 1006.8 |
| 20260510011001 | 59 | 11 | 0.0 | 2.0 | 0.00 | 0.06 | 0.06 | 74 | 1006.8 |
| 20260510005730 | 59 | 33 | 0.0 | 0.0 | 0.00 | 0.06 | 0.06 | 77 | 1006.4 |
| 20260510004539 | 61 | 121 | 0.0 | 0.0 | 0.00 | 0.06 | 0.06 | 77 | 1006.4 |
| 20260510003318 | 63 | 207 | 0.0 | 0.0 | 0.00 | 0.06 | 0.06 | 77 | 1006.1 |
| 20260510000916 | 63 | 62 | 0.0 | 2.0 | 0.00 | 0.06 | 0.06 | 85 | 1006.0 |
| 20260509235737 | 64 | 60 | 0.0 | 0.0 | 0.00 | 0.06 | 0.06 | 82 | 1005.7 |
| 20260509234552 | 65 | 103 | 0.0 | 1.0 | 0.00 | 0.06 | 0.06 | 79 | 1005.7 |
| 20260509233351 | 65 | 244 | 0.0 | 4.0 | 0.00 | 0.06 | 0.06 | 79 | 1005.5 |
| 20260509232124 | 65 | 58 | 0.0 | 6.0 | 0.00 | 0.06 | 0.06 | 81 | 1005.5 |
| 20260509230930 | 64 | 99 | 0.0 | 4.0 | 0.00 | 0.06 | 0.06 | 84 | 1005.4 |
| 20260509225702 | 64 | 153 | 0.0 | 2.0 | 0.00 | 0.06 | 0.06 | 86 | 1005.4 |
| 20260509224507 | 64 | 207 | 0.0 | 0.0 | 0.00 | 0.06 | 0.06 | 87 | 1005.4 |
| 20260509223232 | 64 | 79 | 0.0 | 1.0 | 0.00 | 0.06 | 0.06 | 86 | 1005.3 |
| 20260509222046 | 64 | 61 | 0.0 | 9.0 | 0.00 | 0.06 | 0.06 | 82 | 1005.3 |
| 20260509220842 | 62 | 64 | 1.0 | 9.0 | 0.00 | 0.06 | 0.06 | 85 | 1005.2 |
| 20260509215606 | 63 | 46 | 0.0 | 7.0 | 0.13 | 0.06 | 0.06 | 78 | 1005.1 |
| 20260509214412 | 69 | 38 | 1.0 | 14.0 | 0.00 | 0.00 | 0.00 | 62 | 1005.4 |
| 20260509213236 | 70 | 157 | 1.0 | 14.0 | 0.00 | 0.00 | 0.00 | 59 | 1004.9 |
| 20260509212029 | 72 | 46 | 4.0 | 15.0 | 0.00 | 0.00 | 0.00 | 53 | 1004.9 |
| 20260509210805 | 71 | 233 | 3.0 | 11.0 | 0.00 | 0.00 | 0.00 | 55 | 1004.9 |
| 20260509205605 | 71 | 279 | 4.0 | 15.0 | 0.00 | 0.00 | 0.00 | 58 | 1005.1 |
| 20260509204406 | 74 | 271 | 1.0 | 9.0 | 0.00 | 0.00 | 0.00 | 58 | 1005.2 |
| 20260509203225 | 73 | 5 | 3.0 | 14.0 | 0.00 | 0.00 | 0.00 | 55 | 1005.0 |
| 20260509202049 | 74 | 329 | 3.0 | 18.0 | 0.00 | 0.01 | 0.00 | 54 | 1005.1 |
| 20260509200821 | 74 | 336 | 3.0 | 18.0 | 0.00 | 0.01 | 0.00 | 54 | 1005.3 |
| 20260509195624 | 73 | 27 | 4.0 | 18.0 | 0.00 | 0.02 | 0.00 | 56 | 1005.5 |
| 20260509194437 | 74 | 12 | 3.0 | 16.0 | 0.00 | 0.03 | 0.00 | 57 | 1005.3 |
| 20260509193304 | 71 | 302 | 4.0 | 19.0 | 0.00 | 0.03 | 0.00 | 59 | 1005.5 |
| 20260509192026 | 73 | 280 | 4.0 | 19.0 | 0.00 | 0.03 | 0.00 | 58 | 1005.4 |
| 20260509190843 | 73 | 75 | 4.0 | 15.0 | 0.00 | 0.03 | 0.00 | 56 | 1005.5 |
| 20260509185627 | 73 | 282 | 4.0 | 14.0 | 0.00 | 0.03 | 0.00 | 54 | 1005.7 |
| 20260509184351 | 73 | 234 | 4.0 | 14.0 | 0.00 | 0.03 | 0.00 | 58 | 1005.5 |
| 20260509183114 | 73 | 127 | 3.0 | 11.0 | 0.00 | 0.03 | 0.00 | 62 | 1005.5 |
| 20260509181908 | 72 | 227 | 4.0 | 19.0 | 0.00 | 0.03 | 0.00 | 56 | 1005.5 |
| 20260509180723 | 72 | 23 | 4.0 | 15.0 | 0.00 | 0.03 | 0.00 | 60 | 1005.6 |
| 20260509175501 | 72 | 234 | 3.0 | 15.0 | 0.00 | 0.03 | 0.00 | 64 | 1005.8 |
| 20260509174224 | 71 | 252 | 3.0 | 11.0 | 0.00 | 0.03 | 0.00 | 64 | 1005.9 |
| 20260509173026 | 70 | 94 | 4.0 | 12.0 | 0.00 | 0.03 | 0.00 | 67 | 1006.1 |
| 20260509171758 | 70 | 325 | 3.0 | 14.0 | 0.00 | 0.03 | 0.00 | 66 | 1006.3 |
| 20260509170550 | 70 | 73 | 3.0 | 12.0 | 0.00 | 0.03 | 0.00 | 68 | 1006.6 |
| 20260509165349 | 69 | 148 | 4.0 | 11.0 | 0.00 | 0.03 | 0.00 | 70 | 1006.6 |
| 20260509164153 | 68 | 263 | 4.0 | 15.0 | 0.00 | 0.03 | 0.00 | 69 | 1006.7 |
| 20260509161700 | 67 | 84 | 3.0 | 11.0 | 0.00 | 0.03 | 0.00 | 70 | 1006.5 |
| 20260509160502 | 67 | 266 | 3.0 | 14.0 | 0.00 | 0.03 | 0.00 | 70 | 1006.3 |
| 20260509155232 | 66 | 53 | 4.0 | 14.0 | 0.00 | 0.03 | 0.00 | 70 | 1006.5 |
| 20260509154011 | 66 | 355 | 3.0 | 14.0 | 0.00 | 0.03 | 0.00 | 73 | 1006.3 |
| 20260509152810 | 65 | 134 | 3.0 | 9.0 | 0.00 | 0.03 | 0.00 | 74 | 1006.4 |
| 20260509151628 | 65 | 145 | 1.0 | 9.0 | 0.00 | 0.03 | 0.00 | 76 | 1006.5 |
| 20260509150419 | 64 | 96 | 1.0 | 9.0 | 0.00 | 0.03 | 0.00 | 75 | 1006.5 |
| 20260509145247 | 63 | 137 | 1.0 | 9.0 | 0.00 | 0.03 | 0.00 | 78 | 1006.6 |
| 20260509144108 | 63 | 67 | 1.0 | 14.0 | 0.00 | 0.03 | 0.00 | 77 | 1006.7 |
| 20260509142830 | 61 | 300 | 1.0 | 14.0 | 0.00 | 0.03 | 0.00 | 80 | 1006.8 |
| 20260509141611 | 61 | 0 | 1.0 | 8.0 | 0.00 | 0.04 | 0.00 | 82 | 1006.9 |
| 20260509140440 | 60 | 281 | 1.0 | 8.0 | 0.00 | 0.05 | 0.00 | 83 | 1006.9 |
| 20260509135219 | 58 | 159 | 1.0 | 9.0 | 0.00 | 0.06 | 0.00 | 85 | 1007.1 |
| 20260509133957 | 58 | 296 | 1.0 | 11.0 | 0.00 | 0.06 | 0.00 | 85 | 1007.2 |
| 20260509132725 | 58 | 247 | 1.0 | 9.0 | 0.00 | 0.06 | 0.00 | 87 | 1007.0 |
| 20260509131500 | 57 | 281 | 1.0 | 6.0 | 0.00 | 0.07 | 0.00 | 89 | 1007.0 |
| 20260509130238 | 56 | 267 | 0.0 | 8.0 | 0.00 | 0.07 | 0.00 | 90 | 1007.0 |
| 20260509125043 | 56 | 326 | 0.0 | 3.0 | 0.00 | 0.07 | 0.00 | 91 | 1007.0 |
| 20260509123827 | 56 | 63 | 1.0 | 12.0 | 0.00 | 0.07 | 0.00 | 91 | 1007.1 |
| 20260509122613 | 56 | 204 | 0.0 | 12.0 | 0.00 | 0.07 | 0.00 | 92 | 1007.2 |
| 20260509121428 | 55 | 14 | 0.0 | 8.0 | 0.00 | 0.07 | 0.00 | 92 | 1007.2 |
| 20260509120200 | 54 | 266 | 0.0 | 12.0 | 0.00 | 0.07 | 0.00 | 92 | 1007.3 |
| 20260509113756 | 54 | 292 | 0.0 | 6.0 | 0.00 | 0.07 | 0.00 | 92 | 1007.5 |
| 20260509112550 | 54 | 285 | 0.0 | 2.0 | 0.00 | 0.07 | 0.00 | 92 | 1007.3 |
| 20260509111403 | 53 | 142 | 0.0 | 6.0 | 0.00 | 0.07 | 0.00 | 92 | 1007.1 |
| 20260509110229 | 53 | 302 | 0.0 | 6.0 | 0.00 | 0.07 | 0.00 | 92 | 1007.0 |
| 20260509104959 | 53 | 21 | 0.0 | 6.0 | 0.00 | 0.07 | 0.00 | 92 | 1006.8 |
| 20260509103816 | 53 | 36 | 0.0 | 8.0 | 0.00 | 0.07 | 0.00 | 92 | 1006.8 |
| 20260509102543 | 53 | 207 | 0.0 | 3.0 | 0.00 | 0.07 | 0.00 | 92 | 1006.8 |
| 20260509101327 | 53 | 32 | 0.0 | 4.0 | 0.00 | 0.07 | 0.00 | 92 | 1006.9 |
| 20260509100140 | 53 | 202 | 0.0 | 4.0 | 0.00 | 0.08 | 0.00 | 92 | 1006.9 |
| 20260509094933 | 52 | 169 | 0.0 | 2.0 | 0.00 | 0.08 | 0.00 | 92 | 1007.0 |
| 20260509093803 | 51 | 96 | 0.0 | 2.0 | 0.00 | 0.08 | 0.00 | 92 | 1007.1 |
| 20260509092609 | 50 | 96 | 0.0 | 0.0 | 0.00 | 0.08 | 0.00 | 92 | 1007.2 |
| 20260509091357 | 51 | 96 | 0.0 | 0.0 | 0.00 | 0.08 | 0.00 | 92 | 1007.3 |
| 20260509090135 | 51 | 96 | 0.0 | 0.0 | 0.00 | 0.08 | 0.00 | 92 | 1007.1 |
| 20260509084936 | 51 | 96 | 0.0 | 0.0 | 0.00 | 0.08 | 0.00 | 92 | 1007.1 |
| 20260509083659 | 51 | 96 | 0.0 | 1.0 | 0.00 | 0.08 | 0.00 | 92 | 1007.1 |
| 20260509082455 | 51 | 97 | 0.0 | 1.0 | 0.00 | 0.08 | 0.00 | 92 | 1007.0 |
| 20260509081259 | 52 | 96 | 0.0 | 2.0 | 0.00 | 0.08 | 0.00 | 92 | 1007.0 |
| 20260509080108 | 52 | 158 | 0.0 | 6.0 | 0.00 | 0.08 | 0.00 | 92 | 1007.0 |
| 20260509074933 | 52 | 150 | 0.0 | 1.0 | 0.00 | 0.08 | 0.00 | 92 | 1007.3 |
| 20260509073738 | 52 | 90 | 0.0 | 2.0 | 0.00 | 0.08 | 0.00 | 92 | 1007.3 |
| 20260509072514 | 52 | 137 | 0.0 | 4.0 | 0.00 | 0.08 | 0.00 | 92 | 1007.6 |
| 20260509071334 | 53 | 148 | 0.0 | 4.0 | 0.00 | 0.08 | 0.00 | 92 | 1007.9 |
| 20260509070154 | 52 | 271 | 0.0 | 0.0 | 0.00 | 0.08 | 0.00 | 92 | 1007.9 |
| 20260509064944 | 52 | 157 | 0.0 | 2.0 | 0.00 | 0.08 | 0.00 | 92 | 1008.0 |
| 20260509063748 | 52 | 138 | 0.0 | 6.0 | 0.00 | 0.08 | 0.00 | 92 | 1008.1 |
| 20260509062512 | 52 | 155 | 0.0 | 3.0 | 0.00 | 0.08 | 0.00 | 92 | 1008.1 |
| 20260509061239 | 53 | 119 | 0.0 | 6.0 | 0.00 | 0.08 | 0.00 | 92 | 1008.3 |
| 20260509060040 | 53 | 306 | 0.0 | 0.0 | 0.00 | 0.08 | 0.00 | 92 | 1008.3 |
| 20260509054827 | 52 | 205 | 0.0 | 3.0 | 0.00 | 0.08 | 0.00 | 92 | 1008.4 |
| 20260509053643 | 51 | 119 | 0.0 | 0.0 | 0.00 | 0.08 | 0.00 | 91 | 1008.4 |